Year,Month,Day,Hour,Minute,Value (Times are PST for temperature in C)
2008,04,17,00,00,8.60
2008,04,17,00,01,8.60
2008,04,17,00,02,8.60
2008,04,17,00,03,8.60
2008,04,17,00,04,8.60
2008,04,17,00,05,8.60
2008,04,17,00,06,8.60
2008,04,17,00,07,8.60
2008,04,17,00,08,8.60
2008,04,17,00,09,8.60
2008,04,17,00,10,8.60
2008,04,17,00,11,8.60
2008,04,17,01,36,7.50
2008,04,17,01,37,7.50
2008,04,17,01,38,7.50
2008,04,17,01,39,7.50
2008,04,17,01,40,7.40
2008,04,17,01,41,7.40
2008,04,17,01,42,7.40
2008,04,17,01,43,7.40
2008,04,17,01,44,7.40
2008,04,17,01,45,7.40
2008,04,17,01,46,7.40
2008,04,17,01,47,7.40
2008,04,17,01,48,7.40
2008,04,17,01,49,7.30
2008,04,17,01,50,7.30
2008,04,17,01,51,7.30
2008,04,17,01,52,7.30
2008,04,17,01,53,7.30
2008,04,17,01,54,7.30
2008,04,17,01,55,7.30
2008,04,17,01,56,7.30
2008,04,17,01,57,7.30
2008,04,17,01,58,7.30
2008,04,17,01,59,7.30
2008,04,17,02,00,7.30
2008,04,17,02,01,7.40
2008,04,17,02,02,7.40
2008,04,17,02,03,7.40
2008,04,17,02,04,7.40
2008,04,17,02,05,7.40
2008,04,17,02,06,7.40
2008,04,17,02,07,7.30
2008,04,17,02,08,7.30
2008,04,17,02,09,7.30
2008,04,17,02,10,7.30
2008,04,17,02,11,7.30
2008,04,17,02,12,7.30
2008,04,17,02,13,7.40
2008,04,17,02,14,7.40
2008,04,17,02,15,7.40
2008,04,17,02,16,7.40
2008,04,17,02,17,7.40
2008,04,17,02,18,7.30
2008,04,17,02,19,7.20
2008,04,17,02,20,7.10
2008,04,17,02,21,7.00
2008,04,17,02,22,7.00
2008,04,17,02,23,6.80
2008,04,17,02,24,6.80
2008,04,17,02,25,6.70
2008,04,17,02,26,6.60
2008,04,17,02,27,6.60
2008,04,17,02,28,6.50
2008,04,17,02,29,6.40
2008,04,17,02,30,6.40
2008,04,17,02,31,6.40
2008,04,17,02,32,6.40
2008,04,17,02,33,6.40
2008,04,17,02,34,6.40
2008,04,17,02,35,6.40
2008,04,17,02,36,6.50
2008,04,17,02,37,6.60
2008,04,17,02,38,6.70
2008,04,17,02,39,6.80
2008,04,17,02,40,6.90
2008,04,17,02,41,6.90
2008,04,17,02,42,7.00
2008,04,17,02,43,7.10
2008,04,17,02,44,7.20
2008,04,17,02,45,7.20
2008,04,17,02,46,7.30
2008,04,17,02,47,7.30
2008,04,17,02,48,7.40
2008,04,17,02,49,7.40
2008,04,17,02,50,7.50
2008,04,17,02,51,7.60
2008,04,17,02,52,7.70
2008,04,17,02,53,7.70
2008,04,17,02,54,7.80
2008,04,17,02,55,7.80
2008,04,17,02,56,7.80
2008,04,17,02,57,7.80
2008,04,17,02,58,7.80
2008,04,17,02,59,7.80
2008,04,17,03,00,7.80
2008,04,17,03,01,7.80
2008,04,17,03,02,7.80
2008,04,17,03,03,7.80
2008,04,17,03,04,7.80
2008,04,17,03,05,7.80
2008,04,17,03,06,7.80
2008,04,17,03,07,7.80
2008,04,17,03,08,7.80
2008,04,17,03,09,7.80
2008,04,17,03,10,7.90
2008,04,17,03,11,7.90
2008,04,17,03,12,7.90
2008,04,17,03,13,7.90
2008,04,17,03,14,7.90
2008,04,17,03,15,7.90
2008,04,17,03,16,7.90
2008,04,17,03,17,7.90
2008,04,17,03,18,7.90
2008,04,17,03,19,7.90
2008,04,17,03,20,7.90
2008,04,17,03,21,7.90
2008,04,17,03,22,7.90
2008,04,17,03,23,7.90
2008,04,17,03,24,7.90
2008,04,17,03,25,7.90
2008,04,17,03,26,7.90
2008,04,17,03,27,7.90
2008,04,17,03,28,7.80
2008,04,17,03,29,7.80
2008,04,17,03,30,7.80
2008,04,17,03,31,7.80
2008,04,17,03,32,7.80
2008,04,17,03,33,7.80
2008,04,17,03,34,7.80
2008,04,17,03,35,7.80
2008,04,17,03,36,7.80
2008,04,17,03,37,7.80
2008,04,17,03,38,7.80
2008,04,17,03,39,7.80
2008,04,17,03,40,7.80
2008,04,17,03,41,7.80
2008,04,17,03,42,7.80
2008,04,17,03,43,7.80
2008,04,17,03,44,7.80
2008,04,17,03,45,7.80
2008,04,17,03,46,7.80
2008,04,17,03,47,7.80
2008,04,17,03,48,7.90
2008,04,17,03,49,7.90
2008,04,17,03,50,7.90
2008,04,17,03,51,7.90
2008,04,17,03,52,7.90
2008,04,17,03,53,7.90
2008,04,17,03,54,7.90
2008,04,17,03,55,7.90
2008,04,17,03,56,7.90
2008,04,17,03,57,7.90
2008,04,17,03,58,7.90
2008,04,17,03,59,7.90
2008,04,17,04,00,7.90
2008,04,17,04,01,7.90
2008,04,17,04,02,7.90
2008,04,17,04,03,7.90
2008,04,17,04,04,7.90
2008,04,17,04,05,7.90
2008,04,17,04,06,7.90
2008,04,17,04,07,7.90
2008,04,17,04,08,7.90
2008,04,17,04,09,7.90
2008,04,17,04,10,7.90
2008,04,17,04,11,7.90
2008,04,17,04,12,7.90
2008,04,17,04,13,7.90
2008,04,17,04,14,7.90
2008,04,17,04,15,7.80
2008,04,17,04,16,7.80
2008,04,17,04,17,7.80
2008,04,17,04,18,7.80
2008,04,17,04,19,7.80
2008,04,17,04,20,7.80
2008,04,17,04,21,7.80
2008,04,17,04,22,7.80
2008,04,17,04,23,7.80
2008,04,17,04,24,7.80
2008,04,17,04,25,7.80
2008,04,17,04,26,7.80
2008,04,17,04,27,7.80
2008,04,17,04,28,7.80
2008,04,17,04,29,7.80
2008,04,17,04,30,7.80
2008,04,17,04,31,7.80
2008,04,17,04,32,7.80
2008,04,17,04,33,7.80
2008,04,17,04,34,7.80
2008,04,17,04,35,7.80
2008,04,17,04,36,7.80
2008,04,17,04,37,7.80
2008,04,17,04,38,7.80
2008,04,17,04,39,7.80
2008,04,17,04,40,7.80
2008,04,17,04,41,7.80
2008,04,17,04,42,7.80
2008,04,17,04,43,7.80
2008,04,17,04,44,7.80
2008,04,17,04,45,7.80
2008,04,17,04,46,7.80
2008,04,17,04,47,7.80
2008,04,17,04,48,7.80
2008,04,17,04,49,7.80
2008,04,17,04,50,7.80
2008,04,17,04,51,7.80
2008,04,17,04,52,7.80
2008,04,17,05,28,7.60
2008,04,17,05,29,7.60
2008,04,17,05,30,7.60
2008,04,17,05,31,7.60
2008,04,17,05,32,7.60
2008,04,17,05,33,7.60
2008,04,17,05,34,7.60
2008,04,17,05,35,7.60
2008,04,17,05,36,7.60
2008,04,17,05,37,7.60
2008,04,17,05,38,7.60
2008,04,17,05,55,7.30
2008,04,17,05,56,7.30
2008,04,17,05,57,7.30
2008,04,17,05,58,7.30
2008,04,17,05,59,7.30
2008,04,17,06,00,7.30
2008,04,17,06,01,7.30
2008,04,17,06,02,7.30
2008,04,17,06,03,7.30
2008,04,17,06,04,7.30
2008,04,17,06,05,7.30
2008,04,17,06,06,7.30
2008,04,17,06,07,7.30
2008,04,17,06,08,7.30
2008,04,17,06,09,7.30
2008,04,17,06,10,7.30
2008,04,17,06,11,7.30
2008,04,17,06,12,7.30
2008,04,17,06,13,7.30
2008,04,17,06,14,7.20
2008,04,17,06,15,7.10
2008,04,17,06,16,7.10
2008,04,17,06,17,7.00
2008,04,17,06,18,7.00
2008,04,17,06,19,7.00
2008,04,17,06,20,7.00
2008,04,17,06,21,7.10
2008,04,17,06,22,7.10
2008,04,17,06,23,7.10
2008,04,17,06,24,7.10
2008,04,17,06,25,7.10
2008,04,17,06,26,7.10
2008,04,17,06,27,7.10
2008,04,17,06,28,7.20
2008,04,17,06,29,7.20
2008,04,17,06,30,7.20
2008,04,17,06,31,7.30
2008,04,17,06,32,7.30
2008,04,17,06,33,7.30
2008,04,17,06,34,7.30
2008,04,17,06,35,7.30
2008,04,17,06,36,7.30
2008,04,17,06,37,7.30
2008,04,17,06,38,7.30
2008,04,17,06,39,7.30
2008,04,17,06,40,7.30
2008,04,17,06,41,7.30
2008,04,17,06,42,7.30
2008,04,17,06,43,7.20
2008,04,17,06,44,7.20
2008,04,17,06,45,7.10
2008,04,17,06,46,7.10
2008,04,17,06,47,7.10
2008,04,17,06,48,7.00
2008,04,17,06,49,7.00
2008,04,17,06,50,7.00
2008,04,17,06,51,7.00
2008,04,17,06,52,7.00
2008,04,17,06,53,7.00
2008,04,17,06,54,7.00
2008,04,17,06,55,7.00
2008,04,17,06,56,7.00
2008,04,17,06,57,7.00
2008,04,17,06,58,7.20
2008,04,17,06,59,7.30
2008,04,17,07,00,7.40
2008,04,17,07,01,7.40
2008,04,17,07,02,7.40
2008,04,17,07,03,7.40
2008,04,17,07,04,7.40
2008,04,17,07,05,7.40
2008,04,17,07,06,7.50
2008,04,17,07,07,7.50
2008,04,17,07,08,7.50
2008,04,17,07,09,7.50
2008,04,17,07,10,7.60
2008,04,17,07,11,7.60
2008,04,17,07,12,7.60
2008,04,17,07,13,7.60
2008,04,17,07,14,7.60
2008,04,17,07,15,7.60
2008,04,17,07,16,7.60
2008,04,17,07,17,7.50
2008,04,17,07,18,7.50
2008,04,17,07,19,7.50
2008,04,17,07,20,7.50
2008,04,17,07,21,7.50
2008,04,17,07,22,7.50
2008,04,17,07,23,7.60
2008,04,17,07,24,7.60
2008,04,17,07,25,7.60
2008,04,17,07,26,7.70
2008,04,17,07,27,7.70
2008,04,17,07,28,7.80
2008,04,17,07,29,7.80
2008,04,17,07,30,7.80
2008,04,17,07,31,7.80
2008,04,17,07,32,7.80
2008,04,17,07,33,7.90
2008,04,17,07,34,7.90
2008,04,17,07,35,7.90
2008,04,17,07,36,7.90
2008,04,17,07,37,8.00
2008,04,17,07,38,7.90
2008,04,17,07,39,7.90
2008,04,17,07,40,7.90
2008,04,17,07,41,7.90
2008,04,17,07,42,7.90
2008,04,17,07,43,7.90
2008,04,17,07,44,7.90
2008,04,17,07,45,7.90
2008,04,17,07,46,7.90
2008,04,17,07,47,7.90
2008,04,17,07,48,8.00
2008,04,17,07,49,8.00
2008,04,17,07,50,8.10
2008,04,17,07,51,8.10
2008,04,17,07,52,8.10
2008,04,17,07,53,8.10
2008,04,17,07,54,8.20
2008,04,17,07,55,8.20
2008,04,17,07,56,8.30
2008,04,17,07,57,8.30
2008,04,17,07,58,8.40
2008,04,17,07,59,8.40
2008,04,17,08,00,8.50
2008,04,17,08,01,8.50
2008,04,17,08,02,8.60
2008,04,17,08,03,8.60
2008,04,17,08,04,8.60
2008,04,17,08,05,8.70
2008,04,17,08,06,8.70
2008,04,17,08,07,8.70
2008,04,17,08,08,8.70
2008,04,17,08,09,8.70
2008,04,17,08,10,8.90
2008,04,17,08,11,9.20
2008,04,17,08,12,9.20
2008,04,17,08,13,9.20
2008,04,17,08,14,9.20
2008,04,17,08,15,9.20
2008,04,17,08,16,9.30
2008,04,17,08,17,9.30
2008,04,17,08,18,9.40
2008,04,17,08,19,9.50
2008,04,17,08,20,9.70
2008,04,17,08,21,9.70
2008,04,17,08,22,9.80
2008,04,17,08,23,9.80
2008,04,17,08,24,9.80
2008,04,17,08,25,9.90
2008,04,17,08,26,9.90
2008,04,17,08,27,9.90
2008,04,17,08,28,10.00
2008,04,17,08,29,10.10
2008,04,17,08,30,10.10
2008,04,17,08,31,10.10
2008,04,17,08,32,10.10
2008,04,17,08,33,10.10
2008,04,17,08,34,10.10
2008,04,17,08,35,10.10
2008,04,17,08,36,10.10
2008,04,17,08,37,10.10
2008,04,17,08,38,10.10
2008,04,17,08,39,10.10
2008,04,17,08,40,10.10
2008,04,17,08,41,10.10
2008,04,17,08,42,10.10
2008,04,17,08,43,10.20
2008,04,17,08,44,10.30
2008,04,17,08,45,10.30
2008,04,17,08,46,10.40
2008,04,17,08,47,10.40
2008,04,17,08,48,10.50
2008,04,17,08,49,10.60
2008,04,17,08,50,10.60
2008,04,17,08,51,10.60
2008,04,17,08,52,10.50
2008,04,17,08,53,10.40
2008,04,17,08,54,10.40
2008,04,17,08,55,10.40
2008,04,17,08,56,10.40
2008,04,17,08,57,10.40
2008,04,17,08,58,10.30
2008,04,17,08,59,10.30
2008,04,17,09,00,10.30
2008,04,17,09,01,10.30
2008,04,17,09,02,10.30
2008,04,17,09,03,10.30
2008,04,17,09,04,10.30
2008,04,17,09,05,10.30
2008,04,17,09,06,10.30
2008,04,17,09,07,10.30
2008,04,17,09,08,10.40
2008,04,17,09,09,10.40
2008,04,17,09,10,10.40
2008,04,17,09,11,10.60
2008,04,17,09,12,10.60
2008,04,17,09,13,10.60
2008,04,17,09,14,10.60
2008,04,17,09,15,10.60
2008,04,17,09,16,10.70
2008,04,17,09,17,10.80
2008,04,17,09,18,10.90
2008,04,17,09,19,10.90
2008,04,17,09,20,10.90
2008,04,17,09,21,10.90
2008,04,17,09,22,10.90
2008,04,17,09,23,10.90
2008,04,17,09,24,10.90
2008,04,17,09,25,11.00
2008,04,17,09,26,11.10
2008,04,17,09,27,11.10
2008,04,17,09,28,11.10
2008,04,17,09,29,11.10
2008,04,17,09,30,11.10
2008,04,17,09,31,11.10
2008,04,17,09,32,11.10
2008,04,17,09,33,11.10
2008,04,17,09,34,11.10
2008,04,17,09,35,11.10
2008,04,17,09,36,11.10
2008,04,17,09,37,11.10
2008,04,17,09,38,11.10
2008,04,17,09,39,11.10
2008,04,17,09,40,11.10
2008,04,17,09,41,11.10
2008,04,17,09,42,11.10
2008,04,17,09,43,11.10
2008,04,17,09,44,11.10
2008,04,17,09,45,11.10
2008,04,17,09,46,11.10
2008,04,17,09,47,11.10
2008,04,17,09,48,11.10
2008,04,17,09,49,11.10
2008,04,17,09,50,11.10
2008,04,17,09,51,11.10
2008,04,17,09,52,11.10
2008,04,17,10,08,11.40
2008,04,17,10,09,11.40
2008,04,17,10,10,11.50
2008,04,17,10,11,11.60
2008,04,17,10,12,11.60
2008,04,17,10,13,11.60
2008,04,17,10,14,11.60
2008,04,17,10,15,11.60
2008,04,17,10,16,11.60
2008,04,17,10,17,11.60
2008,04,17,10,18,11.60
2008,04,17,10,19,11.60
2008,04,17,10,20,11.80
2008,04,17,10,21,11.80
2008,04,17,10,22,11.80
2008,04,17,10,23,11.80
2008,04,17,10,24,11.80
2008,04,17,10,25,11.90
2008,04,17,10,26,12.00
2008,04,17,10,27,12.00
2008,04,17,10,28,12.10
2008,04,17,10,29,12.10
2008,04,17,10,30,12.20
2008,04,17,10,31,12.20
2008,04,17,10,32,12.20
2008,04,17,10,33,12.10
2008,04,17,10,34,12.20
2008,04,17,10,35,12.20
2008,04,17,10,36,12.20
2008,04,17,10,37,12.30
2008,04,17,10,38,12.30
2008,04,17,10,39,12.30
2008,04,17,10,40,12.30
2008,04,17,10,41,12.30
2008,04,17,10,42,12.30
2008,04,17,10,43,12.30
2008,04,17,10,44,12.30
2008,04,17,10,45,12.30
2008,04,17,10,46,12.40
2008,04,17,10,47,12.40
2008,04,17,10,48,12.40
2008,04,17,10,49,12.50
2008,04,17,10,50,12.50
2008,04,17,10,51,12.50
2008,04,17,10,52,12.50
2008,04,17,10,53,12.40
2008,04,17,10,54,12.40
2008,04,17,10,55,12.40
2008,04,17,10,56,12.40
2008,04,17,10,57,12.40
2008,04,17,10,58,12.40
2008,04,17,10,59,12.40
2008,04,17,11,00,12.40
2008,04,17,11,01,12.40
2008,04,17,11,02,12.40
2008,04,17,11,03,12.30
2008,04,17,11,04,12.30
2008,04,17,11,05,12.30
2008,04,17,11,06,12.30
2008,04,17,11,07,12.50
2008,04,17,11,08,12.50
2008,04,17,11,09,12.60
2008,04,17,11,10,12.60
2008,04,17,11,11,12.60
2008,04,17,11,12,12.60
2008,04,17,11,13,12.60
2008,04,17,11,14,12.60
2008,04,17,11,15,12.70
2008,04,17,11,16,12.70
2008,04,17,11,17,12.70
2008,04,17,11,18,12.70
2008,04,17,11,19,12.80
2008,04,17,11,20,12.80
2008,04,17,11,21,12.80
2008,04,17,11,22,12.80
2008,04,17,11,23,12.80
2008,04,17,11,24,12.80
2008,04,17,11,25,12.80
2008,04,17,11,26,12.90
2008,04,17,11,27,13.10
2008,04,17,11,28,13.00
2008,04,17,11,29,13.00
2008,04,17,11,30,12.90
2008,04,17,11,31,12.90
2008,04,17,11,32,13.00
2008,04,17,11,33,13.00
2008,04,17,11,34,13.00
2008,04,17,11,35,13.00
2008,04,17,11,36,13.00
2008,04,17,11,37,13.00
2008,04,17,11,38,13.00
2008,04,17,11,39,13.00
2008,04,17,11,40,13.00
2008,04,17,11,41,13.00
2008,04,17,11,42,13.00
2008,04,17,12,16,14.00
2008,04,17,12,17,14.00
2008,04,17,12,18,14.00
2008,04,17,12,19,14.00
2008,04,17,12,20,14.00
2008,04,17,12,21,14.00
2008,04,17,12,22,13.90
2008,04,17,12,23,13.90
2008,04,17,12,24,13.90
2008,04,17,12,25,13.90
2008,04,17,12,26,13.90
2008,04,17,12,27,13.90
2008,04,17,12,28,13.90
2008,04,17,12,29,13.90
2008,04,17,12,30,13.80
2008,04,17,12,31,13.60
2008,04,17,12,32,13.50
2008,04,17,12,33,13.30
2008,04,17,12,34,13.30
2008,04,17,12,35,13.30
2008,04,17,12,36,13.30
2008,04,17,12,37,13.30
2008,04,17,12,38,13.40
2008,04,17,12,39,13.30
2008,04,17,12,40,13.20
2008,04,17,12,41,13.10
2008,04,17,12,42,13.00
2008,04,17,12,43,13.10
2008,04,17,12,44,13.10
2008,04,17,12,45,13.20
2008,04,17,12,46,13.30
2008,04,17,12,47,13.30
2008,04,17,12,48,13.50
2008,04,17,12,49,13.50
2008,04,17,12,50,13.60
2008,04,17,12,51,13.60
2008,04,17,12,52,13.60
2008,04,17,12,53,13.60
2008,04,17,12,54,13.50
2008,04,17,12,55,13.20
2008,04,17,12,56,13.00
2008,04,17,12,57,12.90
2008,04,17,12,58,12.90
2008,04,17,12,59,12.90
2008,04,17,13,00,12.90
2008,04,17,13,01,12.80
2008,04,17,13,02,12.80
2008,04,17,13,03,12.80
2008,04,17,13,04,12.80
2008,04,17,13,05,12.90
2008,04,17,13,06,12.90
2008,04,17,13,07,12.70
2008,04,17,13,08,12.60
2008,04,17,13,09,12.50
2008,04,17,13,10,12.40
2008,04,17,13,11,12.50
2008,04,17,13,12,12.50
2008,04,17,13,13,12.50
2008,04,17,13,14,12.50
2008,04,17,13,15,12.60
2008,04,17,13,16,12.70
2008,04,17,13,17,12.80
2008,04,17,13,18,12.80
2008,04,17,13,19,12.80
2008,04,17,13,20,12.80
2008,04,17,13,21,12.60
2008,04,17,13,22,12.50
2008,04,17,13,23,12.50
2008,04,17,13,24,12.50
2008,04,17,13,25,12.50
2008,04,17,13,26,12.60
2008,04,17,13,27,12.70
2008,04,17,13,28,12.80
2008,04,17,13,29,12.80
2008,04,17,13,30,12.80
2008,04,17,13,31,12.80
2008,04,17,13,32,12.80
2008,04,17,13,33,12.80
2008,04,17,13,34,12.80
2008,04,17,13,35,12.90
2008,04,17,13,36,13.00
2008,04,17,13,37,13.10
2008,04,17,13,38,13.20
2008,04,17,13,39,13.20
2008,04,17,13,40,13.20
2008,04,17,13,41,13.30
2008,04,17,13,42,13.50
2008,04,17,13,43,13.60
2008,04,17,13,44,13.70
2008,04,17,13,45,13.70
2008,04,17,13,46,13.70
2008,04,17,13,47,13.80
2008,04,17,13,48,13.90
2008,04,17,13,49,14.00
2008,04,17,13,50,14.00
2008,04,17,13,51,14.10
2008,04,17,13,52,14.10
2008,04,17,13,53,14.20
2008,04,17,13,54,14.20
2008,04,17,13,55,14.20
2008,04,17,13,56,14.20
2008,04,17,13,57,14.20
2008,04,17,13,58,14.30
2008,04,17,13,59,14.40
2008,04,17,14,00,14.50
2008,04,17,14,01,14.50
2008,04,17,14,02,14.50
2008,04,17,14,03,14.50
2008,04,17,14,04,14.50
2008,04,17,14,05,14.50
2008,04,17,14,06,14.40
2008,04,17,14,07,14.30
2008,04,17,14,08,14.30
2008,04,17,14,09,14.30
2008,04,17,14,10,14.30
2008,04,17,14,11,14.30
2008,04,17,14,12,14.40
2008,04,17,14,13,14.30
2008,04,17,14,14,14.30
2008,04,17,14,15,14.30
2008,04,17,14,16,14.20
2008,04,17,14,17,14.20
2008,04,17,14,18,14.30
2008,04,17,14,19,14.40
2008,04,17,14,20,14.40
2008,04,17,14,21,14.30
2008,04,17,14,22,14.30
2008,04,17,14,23,14.30
2008,04,17,14,24,14.40
2008,04,17,14,25,14.40
2008,04,17,14,26,14.40
2008,04,17,14,27,14.40
2008,04,17,14,28,14.40
2008,04,17,14,29,14.40
2008,04,17,14,30,14.40
2008,04,17,14,31,14.40
2008,04,17,14,32,14.40
2008,04,17,14,33,14.40
2008,04,17,14,34,14.40
2008,04,17,14,35,14.40
2008,04,17,15,08,13.90
2008,04,17,15,09,13.90
2008,04,17,15,10,13.90
2008,04,17,15,11,13.80
2008,04,17,15,12,13.80
2008,04,17,15,13,13.70
2008,04,17,15,14,13.60
2008,04,17,15,15,13.50
2008,04,17,15,16,13.40
2008,04,17,15,17,13.30
2008,04,17,15,18,13.20
2008,04,17,15,19,13.10
2008,04,17,15,20,13.00
2008,04,17,15,21,12.90
2008,04,17,15,22,13.00
2008,04,17,15,23,13.10
2008,04,17,15,24,13.20
2008,04,17,15,25,13.30
2008,04,17,15,26,13.40
2008,04,17,15,27,13.40
2008,04,17,15,28,13.40
2008,04,17,15,29,13.40
2008,04,17,15,30,13.30
2008,04,17,15,31,13.30
2008,04,17,15,32,13.30
2008,04,17,15,33,13.30
2008,04,17,15,34,13.30
2008,04,17,15,35,13.30
2008,04,17,15,36,13.30
2008,04,17,15,37,13.20
2008,04,17,15,38,13.10
2008,04,17,15,39,13.20
2008,04,17,15,40,13.20
2008,04,17,15,41,13.30
2008,04,17,15,42,13.20
2008,04,17,15,43,13.10
2008,04,17,15,44,13.10
2008,04,17,15,45,13.00
2008,04,17,15,46,12.90
2008,04,17,15,47,12.80
2008,04,17,15,48,12.60
2008,04,17,15,49,12.50
2008,04,17,15,50,12.40
2008,04,17,15,51,12.30
2008,04,17,15,52,12.30
2008,04,17,15,53,12.30
2008,04,17,15,54,12.30
2008,04,17,15,55,12.40
2008,04,17,15,56,12.40
2008,04,17,15,57,12.40
2008,04,17,15,58,12.40
2008,04,17,15,59,12.30
2008,04,17,16,00,12.30
2008,04,17,16,01,12.30
2008,04,17,16,02,12.40
2008,04,17,16,03,12.50
2008,04,17,16,04,12.50
2008,04,17,16,05,12.60
2008,04,17,16,06,12.50
2008,04,17,16,07,12.50
2008,04,17,16,08,12.50
2008,04,17,16,09,12.40
2008,04,17,16,10,12.30
2008,04,17,16,11,12.30
2008,04,17,16,12,12.30
2008,04,17,16,13,12.30
2008,04,17,16,14,12.30
2008,04,17,16,15,12.30
2008,04,17,16,16,12.40
2008,04,17,16,17,12.40
2008,04,17,16,18,12.40
2008,04,17,16,19,12.40
2008,04,17,16,20,12.40
2008,04,17,16,21,12.40
2008,04,17,16,22,12.40
2008,04,17,16,23,12.50
2008,04,17,16,24,12.50
2008,04,17,16,25,12.50
2008,04,17,16,26,12.50
2008,04,17,16,27,12.50
2008,04,17,16,28,12.50
2008,04,17,16,29,12.40
2008,04,17,16,30,12.40
2008,04,17,16,31,12.40
2008,04,17,16,32,12.40
2008,04,17,16,33,12.30
2008,04,17,16,34,12.30
2008,04,17,16,35,12.30
2008,04,17,16,36,12.30
2008,04,17,16,37,12.30
2008,04,17,16,38,12.30
2008,04,17,16,39,12.30
2008,04,17,16,40,12.30
2008,04,17,16,41,12.30
2008,04,17,16,42,12.30
2008,04,17,16,43,12.30
2008,04,17,16,44,12.30
2008,04,17,16,45,12.30
2008,04,17,16,46,12.30
2008,04,17,16,47,12.30
2008,04,17,16,48,12.40
2008,04,17,16,49,12.40
2008,04,17,16,50,12.40
2008,04,17,16,51,12.30
2008,04,17,16,52,12.30
2008,04,17,16,53,12.30
2008,04,17,16,54,12.20
2008,04,17,16,55,12.20
2008,04,17,16,56,12.30
2008,04,17,16,57,12.20
2008,04,17,16,58,12.20
2008,04,17,16,59,12.20
2008,04,17,17,00,12.20
2008,04,17,17,01,12.10
2008,04,17,17,02,12.10
2008,04,17,17,03,12.10
2008,04,17,17,04,12.10
2008,04,17,17,05,12.00
2008,04,17,17,06,12.00
2008,04,17,17,07,11.90
2008,04,17,17,08,11.90
2008,04,17,17,09,11.80
2008,04,17,17,10,11.80
2008,04,17,17,11,11.80
2008,04,17,17,12,11.80
2008,04,17,17,13,11.80
2008,04,17,17,14,11.80
2008,04,17,17,15,11.70
2008,04,17,17,16,11.70
2008,04,17,17,17,11.70
2008,04,17,17,18,11.70
2008,04,17,17,19,11.70
2008,04,17,17,20,11.70
2008,04,17,17,21,11.70
2008,04,17,17,22,11.70
2008,04,17,17,23,11.70
2008,04,17,17,24,11.60
2008,04,17,17,25,11.60
2008,04,17,17,26,11.60
2008,04,17,17,27,11.60
2008,04,17,17,28,11.60
2008,04,17,17,29,11.60
2008,04,17,17,30,11.60
2008,04,17,17,31,11.60
2008,04,17,17,32,11.60
2008,04,17,17,33,11.60
2008,04,17,17,34,11.60
2008,04,17,17,35,11.60
2008,04,17,17,36,11.60
2008,04,17,17,37,11.60
2008,04,17,17,38,11.60
2008,04,17,17,39,11.60
2008,04,17,17,40,11.60
2008,04,17,17,41,11.60
2008,04,17,17,42,11.60
2008,04,17,17,43,11.60
2008,04,17,17,44,11.60
2008,04,17,17,45,11.30
2008,04,17,17,46,11.30
2008,04,17,17,47,11.20
2008,04,17,17,48,11.20
2008,04,17,17,49,11.20
2008,04,17,17,50,11.10
2008,04,17,17,51,11.10
2008,04,17,17,52,11.00
2008,04,17,17,53,10.90
2008,04,17,17,54,10.90
2008,04,17,17,55,10.90
2008,04,17,17,56,10.80
2008,04,17,17,57,10.90
2008,04,17,17,58,10.90
2008,04,17,17,59,10.90
2008,04,17,18,00,10.90
2008,04,17,18,01,10.90
2008,04,17,18,02,10.90
2008,04,17,18,03,10.90
2008,04,17,18,04,10.90
2008,04,17,18,05,10.90
2008,04,17,18,06,10.80
2008,04,17,18,07,10.70
2008,04,17,18,08,10.70
2008,04,17,18,09,10.70
2008,04,17,18,10,10.60
2008,04,17,18,11,10.60
2008,04,17,18,12,10.60
2008,04,17,18,13,10.60
2008,04,17,18,14,10.50
2008,04,17,18,15,10.40
2008,04,17,18,16,10.40
2008,04,17,18,17,10.40
2008,04,17,18,18,10.30
2008,04,17,18,19,10.30
2008,04,17,18,20,10.20
2008,04,17,18,21,10.10
2008,04,17,18,22,10.10
2008,04,17,18,23,10.10
2008,04,17,18,24,10.10
2008,04,17,18,25,10.10
2008,04,17,18,26,10.10
2008,04,17,18,27,10.10
2008,04,17,18,28,10.10
2008,04,17,18,29,10.10
2008,04,17,18,30,10.10
2008,04,17,18,31,10.10
2008,04,17,18,32,10.00
2008,04,17,18,33,9.90
2008,04,17,18,34,9.90
2008,04,17,18,35,9.90
2008,04,17,18,36,9.90
2008,04,17,18,37,9.90
2008,04,17,18,38,9.90
2008,04,17,18,39,9.90
2008,04,17,18,40,9.90
2008,04,17,18,41,9.80
2008,04,17,18,42,9.80
2008,04,17,18,43,9.70
2008,04,17,18,44,9.70
2008,04,17,18,45,9.70
2008,04,17,18,46,9.70
2008,04,17,18,47,9.70
2008,04,17,18,48,9.70
2008,04,17,18,49,9.70
2008,04,17,18,50,9.70
2008,04,17,18,51,9.70
2008,04,17,18,52,9.60
2008,04,17,18,53,9.60
2008,04,17,18,54,9.60
2008,04,17,18,55,9.60
2008,04,17,18,56,9.60
2008,04,17,18,57,9.60
2008,04,17,18,58,9.50
2008,04,17,18,59,9.50
2008,04,17,19,00,9.40
2008,04,17,19,01,9.40
2008,04,17,19,02,9.30
2008,04,17,19,03,9.30
2008,04,17,19,04,9.30
2008,04,17,19,05,9.20
2008,04,17,19,06,9.20
2008,04,17,19,07,9.20
2008,04,17,19,08,9.20
2008,04,17,19,09,9.20
2008,04,17,19,10,9.10
2008,04,17,19,11,9.00
2008,04,17,19,12,9.00
2008,04,17,19,13,8.90
2008,04,17,19,14,8.80
2008,04,17,19,15,8.80
2008,04,17,19,16,8.70
2008,04,17,19,17,8.70
2008,04,17,19,18,8.60
2008,04,17,19,19,8.60
2008,04,17,19,20,8.50
2008,04,17,19,21,8.50
2008,04,17,19,22,8.50
2008,04,17,19,23,8.40
2008,04,17,19,24,8.40
2008,04,17,19,25,8.40
2008,04,17,19,26,8.30
2008,04,17,19,27,8.30
2008,04,17,19,28,8.20
2008,04,17,19,29,8.20
2008,04,17,19,30,8.20
2008,04,17,19,31,8.20
2008,04,17,19,32,8.20
2008,04,17,19,33,8.10
2008,04,17,19,34,8.10
2008,04,17,19,35,8.10
2008,04,17,19,36,8.10
2008,04,17,19,37,8.10
2008,04,17,19,38,8.00
2008,04,17,19,39,8.00
2008,04,17,19,40,7.90
2008,04,17,19,41,7.90
2008,04,17,19,42,7.90
2008,04,17,19,43,7.80
2008,04,17,19,44,7.80
2008,04,17,19,45,7.80
2008,04,17,19,46,7.80
2008,04,17,19,47,7.80
2008,04,17,19,48,7.70
2008,04,17,19,49,7.70
2008,04,17,19,50,7.70
2008,04,17,19,51,7.70
2008,04,17,19,52,7.60
2008,04,17,19,53,7.60
2008,04,17,19,54,7.60
2008,04,17,19,55,7.60
2008,04,17,19,56,7.50
2008,04,17,19,57,7.50
2008,04,17,19,58,7.40
2008,04,17,19,59,7.40
2008,04,17,20,00,7.40
2008,04,17,20,01,7.40
2008,04,17,20,02,7.40
2008,04,17,20,03,7.30
2008,04,17,20,04,7.30
2008,04,17,20,05,7.30
2008,04,17,20,06,7.30
2008,04,17,20,07,7.30
2008,04,17,20,08,7.30
2008,04,17,20,09,7.30
2008,04,17,20,10,7.30
2008,04,17,20,11,7.30
2008,04,17,20,12,7.30
2008,04,17,20,13,7.20
2008,04,17,20,14,7.20
2008,04,17,20,15,7.20
2008,04,17,20,16,7.10
2008,04,17,20,17,7.10
2008,04,17,20,18,7.10
2008,04,17,20,19,7.10
2008,04,17,20,20,7.10
2008,04,17,20,21,7.10
2008,04,17,20,22,7.00
2008,04,17,20,23,7.00
2008,04,17,20,24,7.00
2008,04,17,20,25,7.00
2008,04,17,20,26,7.00
2008,04,17,20,27,7.00
2008,04,17,20,28,7.00
2008,04,17,20,29,7.00
2008,04,17,20,30,7.00
2008,04,17,20,31,6.90
2008,04,17,20,32,6.90
2008,04,17,20,33,6.90
2008,04,17,20,34,6.90
2008,04,17,20,35,6.90
2008,04,17,20,36,6.90
2008,04,17,20,37,6.90
2008,04,17,20,38,6.80
2008,04,17,20,39,6.80
2008,04,17,20,40,6.80
2008,04,17,20,41,6.80
2008,04,17,20,42,6.80
2008,04,17,20,43,6.80
2008,04,17,20,44,6.80
2008,04,17,20,45,6.80
2008,04,17,20,46,6.80
2008,04,17,20,47,6.80
2008,04,17,20,48,6.80
2008,04,17,20,49,6.80
2008,04,17,20,50,6.80
2008,04,17,20,51,6.80
2008,04,17,20,52,6.80
2008,04,17,20,53,6.80
2008,04,17,20,54,6.80
2008,04,17,20,55,6.80
2008,04,17,20,56,6.80
2008,04,17,20,57,6.80
2008,04,17,20,58,6.80
2008,04,17,20,59,6.80
2008,04,17,21,00,6.80
2008,04,17,21,01,6.80
2008,04,17,21,02,6.80
2008,04,17,21,03,6.80
2008,04,17,21,04,6.80
2008,04,17,21,05,6.80
2008,04,17,21,06,6.80
2008,04,17,21,07,6.80
2008,04,17,21,08,6.80
2008,04,17,21,09,6.80
2008,04,17,21,10,6.80
2008,04,17,21,11,6.70
2008,04,17,21,12,6.70
2008,04,17,21,13,6.70
2008,04,17,21,14,6.80
2008,04,17,21,15,6.80
2008,04,17,21,16,6.80
2008,04,17,21,17,6.80